This is the latest recevied weather packets stored in our database for station/object IU3NMQ-10. If no packets are shown the sender has not sent any weather packets the latest 10 day(s).
| Time | Temp. | Humidity | Pressure | Rain* | Wind** | Luminosity | Snow |
|---|---|---|---|---|---|---|---|
| 1787997767 | 32.22° C | 60% | 1010.3 hPa | - | - | - | - |
| 1787996867 | 32.22° C | 61% | 1010.4 hPa | - | - | - | - |
| 1787995974 | 31.67° C | 61% | 1010.4 hPa | - | - | - | - |
| 1787995067 | 31.67° C | 63% | 1010.5 hPa | - | - | - | - |
| 1787994167 | 31.11° C | 65% | 1010.5 hPa | - | - | - | - |
| 1787993266 | 30.56° C | 67% | 1010.4 hPa | - | - | - | - |
| 1787992366 | 30° C | 66% | 1010.3 hPa | - | - | - | - |
| 1787991466 | 28.89° C | 70% | 1010.3 hPa | - | - | - | - |
| 1787990566 | 28.33° C | 75% | 1010.3 hPa | - | - | - | - |
| 1787989666 | 27.78° C | 78% | 1010.3 hPa | - | - | - | - |
| 1787988766 | 26.67° C | 84% | 1010.4 hPa | - | - | - | - |
| 1787987866 | 26.67° C | 84% | 1010.4 hPa | - | - | - | - |
| 1787987024 | 26.11° C | 84% | 1010.1 hPa | - | - | - | - |
| 1787986966 | 26.11° C | 84% | 1010.1 hPa | - | - | - | - |
| 1787986065 | 25.56° C | 87% | 1010 hPa | - | - | - | - |
| 1787985165 | 25° C | 88% | 1009.9 hPa | - | - | - | - |
| 1787984265 | 25° C | 90% | 1009.8 hPa | - | - | - | - |
| 1787983365 | 24.44° C | 91% | 1009.7 hPa | - | - | - | - |
| 1787982465 | 24.44° C | 91% | 1009.9 hPa | - | - | - | - |
| 1787981565 | 23.89° C | 92% | 1009.7 hPa | - | - | - | - |
| 1787980664 | 24.44° C | 91% | 1009.6 hPa | - | - | - | - |
| 1787979764 | 23.89° C | 91% | 1009.5 hPa | - | - | - | - |
| 1787978864 | 24.44° C | 90% | 1009.3 hPa | - | - | - | - |
| 1787977964 | 23.89° C | 91% | 1008.8 hPa | - | - | - | - |
| 1787977063 | 23.89° C | 90% | 1008.6 hPa | - | - | - | - |
* Rain since midnight (hover to see other rain measurements)
** Current wind speed in m/s (hover to see current wind gust speed)